Date String (YYYY-MM-DD hh:mm:ss) UTC,Instrument flags,Ambient pressure (hPa),Sample flow (lpm),Bypass flow (lpm),Sample temperature (°C),Ambient temperature (°C),ASC tube jacket temperature (°C),LED temperature (°C),Box temperature (°C),Sample RH (%),Span deviation,Mass concentration (μg/m³),Mass concentration (μg/m³),Mass concentration (μg/m³)
DateTimeUTC,F1_M11,P_M11,Q1_M11,Q2_M11,T1_M11,T2_M11,T3_M11,T4_M11,T5_M11,U1_M11,ZSPAN_M11,X0_M11,X2_M11,X1_M11
2022-11-22 22:00:00,,0826.8,5.01,0.00,26.5,25.3,00.0,35.4,28.4,07.4,0000.0,0009.74,0003.15,0002.33
2022-11-22 22:01:00,,0826.8,5.00,0.00,26.5,25.3,00.0,35.4,28.4,07.2,0000.0,0009.42,0003.14,0002.33
2022-11-22 22:02:00,,0826.8,5.00,0.00,26.5,25.4,00.0,35.4,28.4,07.3,0000.0,0009.34,0003.14,0002.33
2022-11-22 22:03:00,,0826.8,4.99,0.00,26.6,25.4,00.0,35.4,28.4,07.2,0000.0,0009.37,0003.15,0002.31
2022-11-22 22:04:00,,0826.7,5.01,0.00,26.6,25.4,00.0,35.4,28.4,07.2,0000.0,0009.31,0003.14,0002.32
2022-11-22 22:05:00,,0826.7,5.01,0.00,26.6,25.5,00.0,35.4,28.5,07.1,0000.0,0008.56,0003.12,0002.30
2022-11-22 22:06:00,,0826.8,5.00,0.00,26.6,25.4,00.0,35.4,28.5,07.5,0000.0,0008.04,0003.06,0002.29
2022-11-22 22:07:00,,0826.7,4.99,0.00,26.6,25.5,00.0,35.4,28.5,07.6,0000.0,0008.08,0003.04,0002.29
2022-11-22 22:08:00,,0826.7,5.00,0.00,26.6,25.5,00.0,35.4,28.5,07.5,0000.0,0008.26,0003.06,0002.30
2022-11-22 22:09:00,,0826.7,5.00,0.00,26.6,25.5,00.0,35.4,28.5,07.8,0000.0,0008.56,0003.08,0002.31
2022-11-22 22:10:00,,0826.8,5.00,0.00,26.6,25.5,00.0,35.4,28.5,07.6,0000.0,0008.60,0003.08,0002.30
2022-11-22 22:11:00,,0826.8,5.00,0.00,26.6,25.6,00.0,35.4,28.5,07.3,0000.0,0007.59,0003.14,0002.31
2022-11-22 22:12:00,,0826.8,5.00,0.00,26.6,25.6,00.0,35.4,28.5,07.4,0000.0,0007.51,0003.16,0002.32
2022-11-22 22:13:00,,0826.7,5.01,0.00,26.7,25.6,00.0,35.5,28.5,07.5,0000.0,0007.87,0003.14,0002.30
2022-11-22 22:14:00,,0826.7,5.01,0.00,26.7,25.6,00.0,35.5,28.5,07.5,0000.0,0008.19,0003.13,0002.32
2022-11-22 22:15:00,,0826.8,5.00,0.00,26.7,25.7,00.0,35.5,28.6,07.2,0000.0,0008.19,0003.12,0002.31
2022-11-22 22:16:00,,0826.8,5.00,0.00,26.7,25.7,00.0,35.5,28.6,07.2,0000.0,0008.74,0003.13,0002.31
2022-11-22 22:17:00,,0826.7,5.00,0.00,26.7,25.7,00.0,35.5,28.6,07.2,0000.0,0009.00,0003.13,0002.31
2022-11-22 22:18:00,,0826.7,5.00,0.00,26.7,25.7,00.0,35.5,28.6,07.4,0000.0,0009.24,0003.10,0002.30
2022-11-22 22:19:00,,0826.7,5.01,0.00,26.7,25.7,00.0,35.5,28.6,07.6,0000.0,0009.11,0003.13,0002.31
2022-11-22 22:20:00,,0826.9,5.00,0.00,26.8,25.7,00.0,35.5,28.6,07.9,0000.0,0009.29,0003.16,0002.31
2022-11-22 22:21:00,,0826.7,5.00,0.00,26.8,25.7,00.0,35.6,28.6,07.7,0000.0,0009.30,0003.16,0002.30
2022-11-22 22:22:00,,0826.7,5.00,0.00,26.8,25.8,00.0,35.6,28.7,07.9,0000.0,0009.13,0003.13,0002.30
2022-11-22 22:23:00,,0826.7,4.99,0.00,26.8,25.8,00.0,35.6,28.7,08.6,0000.0,0009.53,0003.12,0002.28
2022-11-22 22:24:00,,0826.9,5.00,0.00,26.8,25.8,00.0,35.6,28.7,08.6,0000.0,0009.71,0003.15,0002.30
2022-11-22 22:25:00,,0826.7,5.01,0.00,26.8,25.8,00.0,35.6,28.7,08.5,0000.0,0009.84,0003.13,0002.29
2022-11-22 22:26:00,,0826.7,4.98,0.00,26.9,25.9,00.0,35.6,28.8,08.1,0000.0,0010.51,0003.13,0002.29
2022-11-22 22:27:00,,0826.7,5.00,0.00,26.9,25.9,00.0,35.7,28.8,07.8,0000.0,0010.08,0003.11,0002.29
2022-11-22 22:28:00,,0826.8,5.00,0.00,26.9,25.9,00.0,35.7,28.8,07.7,0000.0,0009.87,0003.12,0002.30
2022-11-22 22:29:00,,0826.7,5.01,0.00,26.9,25.9,00.0,35.7,28.8,07.8,0000.0,0010.31,0003.16,0002.33
2022-11-22 22:30:00,,0826.8,5.00,0.00,26.9,25.9,00.0,35.7,28.8,07.8,0000.0,0011.72,0003.16,0002.33
2022-11-22 22:31:00,,0826.7,5.00,0.00,26.9,25.9,00.0,35.7,28.8,07.8,0000.0,0011.47,0003.13,0002.33
2022-11-22 22:32:00,,0826.7,5.00,0.00,26.9,25.9,00.0,35.7,28.8,07.8,0000.0,0011.47,0003.18,0002.36
2022-11-22 22:33:00,,0826.8,5.00,0.00,27.0,25.9,00.0,35.8,28.8,07.8,0000.0,0012.72,0003.22,0002.38
2022-11-22 22:34:00,,0826.7,5.00,0.00,27.0,26.0,00.0,35.8,28.9,07.9,0000.0,0014.06,0003.25,0002.40
2022-11-22 22:35:00,,0826.7,5.00,0.00,27.0,26.0,00.0,35.8,28.8,07.9,0000.0,0013.81,0003.24,0002.41
2022-11-22 22:36:00,,0826.7,5.00,0.00,27.0,26.0,00.0,35.8,28.9,07.9,0000.0,0013.82,0003.26,0002.44
2022-11-22 22:37:00,,0826.7,4.99,0.00,27.0,26.0,00.0,35.8,28.9,08.0,0000.0,0013.17,0003.29,0002.46
2022-11-22 22:38:00,,0826.7,5.00,0.00,27.0,26.0,00.0,35.8,28.9,08.1,0000.0,0014.05,0003.34,0002.47
2022-11-22 22:39:00,,0826.7,5.00,0.00,27.1,26.0,00.0,35.8,28.9,08.0,0000.0,0013.96,0003.38,0002.49
2022-11-22 22:40:00,,0826.7,5.00,0.00,27.1,26.0,00.0,35.9,29.0,07.9,0000.0,0013.15,0003.37,0002.48
2022-11-22 22:41:00,,0826.7,5.01,0.00,27.1,26.0,00.0,35.9,29.0,07.8,0000.0,0011.72,0003.37,0002.49
2022-11-22 22:42:00,,0826.7,5.00,0.00,27.1,26.0,00.0,35.9,29.0,07.8,0000.0,0011.54,0003.37,0002.51
2022-11-22 22:43:00,,0826.7,5.00,0.00,27.1,26.1,00.0,35.9,29.0,07.6,0000.0,0011.58,0003.32,0002.51
2022-11-22 22:44:00,,0826.7,5.00,0.00,27.1,26.1,00.0,35.9,29.0,07.6,0000.0,0011.08,0003.29,0002.53
2022-11-22 22:45:00,,0826.7,4.99,0.00,27.1,26.1,00.0,35.9,29.0,07.6,0000.0,0009.36,0003.27,0002.53
2022-11-22 22:46:00,,0826.7,4.99,0.00,27.1,26.1,00.0,36.0,29.0,07.7,0000.0,0009.05,0003.27,0002.56
2022-11-22 22:47:00,,0826.7,4.99,0.00,27.1,26.1,00.0,36.0,29.0,07.7,0000.0,0008.46,0003.28,0002.56
2022-11-22 22:48:00,,0826.7,5.00,0.00,27.2,26.1,00.0,36.0,29.0,07.7,0000.0,0009.24,0003.30,0002.57
2022-11-22 22:49:00,,0826.7,5.00,0.00,27.2,26.1,00.0,36.0,29.0,07.7,0000.0,0008.69,0003.30,0002.58
2022-11-22 22:50:00,,0826.7,5.00,0.00,27.2,26.1,00.0,36.0,29.0,07.7,0000.0,0008.96,0003.30,0002.59
2022-11-22 22:51:00,,0826.7,5.00,0.00,27.2,26.1,00.0,36.0,29.1,07.7,0000.0,0009.34,0003.29,0002.61
2022-11-22 22:52:00,,0826.7,5.00,0.00,27.2,26.1,00.0,36.0,29.1,07.6,0000.0,0009.95,0003.31,0002.64
2022-11-22 22:53:00,,0826.7,4.99,0.00,27.2,26.1,00.0,36.0,29.0,07.6,0000.0,0010.49,0003.38,0002.64
2022-11-22 22:54:00,,0826.7,5.02,0.00,27.2,26.1,00.0,36.0,29.1,07.6,0000.0,0010.84,0003.40,0002.64
2022-11-22 22:55:00,,0826.6,4.98,0.00,27.2,26.1,00.0,36.0,29.1,07.6,0000.0,0010.54,0003.44,0002.67
2022-11-22 22:56:00,,0826.7,5.01,0.00,27.2,26.1,00.0,36.0,29.1,07.6,0000.0,0010.73,0003.47,0002.69
2022-11-22 22:57:00,,0826.7,5.01,0.00,27.2,26.1,00.0,36.1,29.1,07.6,0000.0,0011.25,0003.48,0002.70
2022-11-22 22:58:00,,0826.7,5.00,0.00,27.3,26.1,00.0,36.1,29.1,07.6,0000.0,0012.22,0003.47,0002.71
2022-11-22 22:59:00,,0826.7,4.99,0.00,27.3,26.1,00.0,36.1,29.1,07.6,0000.0,0012.09,0003.48,0002.70
